Clear Lake, IA

12:12 PM CST on December 03, 2016 (GMT -0600)
Mason City Municipal

Weather History for KMCW - November, 2011

Change the Weather History Date:

Saturday, November 5, 2011

  Actual Average Record
Temperature  
Mean Temperature 43 °F 40 °F  
Max Temperature 51 °F 50 °F 74 °F (1918)
Min Temperature 35 °F 30 °F 0 °F (1951)
Degree Days  
Heating Degree Days 22 25  
Month to date heating degree days 118 121  
Since 1 July heating degree days 756 859  
Cooling Degree Days 0 0  
Month to date cooling degree days 0 0  
Year to date cooling degree days 789 616  
Moisture  
Dew Point 39 °F    
Average Humidity 82    
Maximum Humidity 92    
Minimum Humidity 71    
Precipitation  
Precipitation 0.00 in 0.07 in 1.24 in (1979)
Month to date precipitation 0.15 0.35  
Year to date precipitation 20.84 32.43  
Snow  
Snow 0.00 in 0.10 in 4.00 in (1941)
Month to date snowfall 0.0 0.3  
Since 1 July snowfall 0.0 0.7  
Since 1 September snowfall 0.0 0.7  
Snow Depth 0.00 in    
Sea Level Pressure  
Sea Level Pressure 29.93 in    
Wind  
Wind Speed 19 mph (SSE)    
Max Wind Speed 31 mph    
Max Gust Speed 39 mph    
Visibility 7 miles    
Events      
T = Trace of Precipitation, MM = Missing Value Source: NWS Daily Summary

Daily Weather History Graph

Daily Weather History Graph

Search for Another Location

Airport or City:

Trip Planner

Search our weather history database for the weather conditions in past years. The results will help you decide how hot, cold, wet, or windy it might be!

Date:

Astronomy

Nov. 05, 2011 Rise Set
Actual Time 7:52 AM CDT 6:00 PM CDT
Civil Twilight 7:23 AM CDT 6:30 PM CDT
Nautical Twilight 6:49 AM CDT 7:03 PM CDT
Astronomical Twilight 6:16 AM CDT 7:37 PM CDT
Moon 3:24 PM CDT (11/5) 2:56 AM CDT (11/5)
Length of Visible Light 11h 07m
Length of Day
10h 07m
Waxing Gibbous, 78% of the Moon is Illuminated
Nov 5
Waxing Gibbous
Nov 10
Full
Nov 18
Last Quarter
Nov 25
New
Dec 2
First Quarter

Hourly Weather History & Observations

Time (CDT) Temp. Windchill Dew Point Humidity Pressure Visibility Wind Dir Wind Speed Gust Speed Precip Events Conditions
12:53 AM 37.0 °F 28.5 °F 33.1 °F 86% 30.11 in 10.0 mi SSE 13.8 mph - N/A   Clear
1:53 AM 36.0 °F 27.1 °F 32.0 °F 86% 30.10 in 10.0 mi SSE 13.8 mph 20.7 mph N/A   Clear
2:53 AM 37.0 °F 28.5 °F 32.0 °F 82% 30.10 in 10.0 mi SSE 13.8 mph - N/A   Clear
3:53 AM 35.1 °F 25.9 °F 32.0 °F 89% 30.07 in 10.0 mi SSE 13.8 mph - N/A   Clear
4:53 AM 35.1 °F 25.9 °F 32.0 °F 89% 30.05 in 10.0 mi SSE 13.8 mph - N/A   Clear
5:53 AM 35.1 °F 25.9 °F 32.0 °F 89% 30.05 in 10.0 mi SSE 13.8 mph - N/A   Clear
6:53 AM 35.1 °F 25.9 °F 33.1 °F 92% 30.04 in 10.0 mi SSE 13.8 mph - N/A   Clear
7:53 AM 35.1 °F 25.5 °F 33.1 °F 92% 30.03 in 7.0 mi SSE 15.0 mph - N/A   Clear
8:53 AM 37.9 °F 28.5 °F 36.0 °F 93% 30.01 in 6.0 mi SSE 17.3 mph - N/A   Clear
9:19 AM 39.2 °F 29.8 °F 37.4 °F 93% 29.99 in 5.0 mi SSE 18.4 mph - N/A   Partly Cloudy
9:42 AM 39.2 °F 29.0 °F 37.4 °F 93% 29.98 in 5.0 mi SSE 21.9 mph 27.6 mph N/A   Mostly Cloudy
9:53 AM 39.2 °F 29.8 °F 37.4 °F 93% 29.98 in 4.0 mi SSE 18.4 mph 26.5 mph N/A   Overcast
10:53 AM 42.8 °F 34.3 °F 39.2 °F 87% 29.97 in 3.0 mi SSE 19.6 mph 25.3 mph N/A   Overcast
11:38 AM 44.6 °F 36.4 °F 41.0 °F 87% 29.96 in 4.0 mi SSE 20.7 mph 28.8 mph N/A   Scattered Clouds
11:53 AM 46.9 °F - 41.0 °F 80% 29.96 in 5.0 mi SSE 19.6 mph 27.6 mph N/A   Haze
12:53 PM 48.9 °F - 42.1 °F 77% 29.92 in 5.0 mi SSE 23.0 mph 29.9 mph N/A   Haze
1:53 PM 51.1 °F - 42.1 °F 71% 29.90 in 6.0 mi SSE 24.2 mph 29.9 mph N/A   Haze
2:53 PM 50.0 °F - 42.1 °F 74% 29.88 in 6.0 mi SSE 24.2 mph 33.4 mph N/A   Haze
3:35 PM 48.2 °F - 42.8 °F 82% 29.87 in 6.0 mi SSE 26.5 mph 35.7 mph N/A   Haze
3:53 PM 48.0 °F - 42.1 °F 80% 29.87 in 6.0 mi SE 24.2 mph 32.2 mph N/A   Haze
4:53 PM 46.0 °F 38.0 °F 42.1 °F 86% 29.86 in 5.0 mi SSE 21.9 mph 31.1 mph N/A   Overcast
5:53 PM 46.0 °F 37.4 °F 42.1 °F 86% 29.85 in 5.0 mi SSE 25.3 mph 31.1 mph N/A   Overcast
6:39 PM 44.6 °F 36.1 °F 42.8 °F 93% 29.84 in 6.0 mi SSE 21.9 mph 28.8 mph N/A   Overcast
6:53 PM 45.0 °F 36.4 °F 42.1 °F 90% 29.85 in 6.0 mi SSE 23.0 mph 34.5 mph N/A   Overcast
7:53 PM 45.0 °F 36.2 °F 42.1 °F 90% 29.83 in 7.0 mi SSE 24.2 mph 34.5 mph N/A   Overcast
8:51 PM 44.6 °F 35.5 °F 42.8 °F 93% 29.80 in 8.0 mi SE 25.3 mph 29.9 mph N/A   Mostly Cloudy
8:53 PM 45.0 °F 36.4 °F 42.1 °F 90% 29.81 in 8.0 mi SSE 23.0 mph 29.9 mph N/A   Mostly Cloudy
9:17 PM 44.6 °F 36.1 °F 41.0 °F 87% 29.79 in 7.0 mi SSE 21.9 mph 29.9 mph N/A   Scattered Clouds
9:53 PM 44.1 °F 35.4 °F 41.0 °F 89% 29.80 in 7.0 mi SSE 21.9 mph 28.8 mph N/A   Clear
10:53 PM 44.6 °F 36.9 °F 41.0 °F 87% 29.78 in 6.0 mi SSE 18.4 mph 27.6 mph N/A   Clear
11:53 PM 44.1 °F 35.7 °F 42.1 °F 93% 29.78 in 5.0 mi SSE 20.7 mph 28.8 mph N/A   Clear